Weather History for KPSK - August, 2012

Change the Weather History Date:

Tuesday, August 7, 2012

  Actual Average (KBCB) Record (KBCB)
Temperature  
Mean Temperature 74 °F 71 °F  
Max Temperature 82 °F 82 °F 91 °F (1955)
Min Temperature 66 °F 60 °F 45 °F (1957)
Degree Days  
Heating Degree Days 0 0  
Month to date heating degree days 0  
Since 1 June heating degree days 44  
Since 1 July heating degree days 6  
Cooling Degree Days 9 6  
Month to date cooling degree days 42  
Year to date cooling degree days 386  
Since 1 June cooling degree days 357  
Growing Degree Days 24 (Base 50)    
Moisture  
Dew Point 68 °F    
Average Humidity 86    
Maximum Humidity 100    
Minimum Humidity 58    
Precipitation  
Precipitation 0.00 in 0.12 in 0.79 in (1960)
Month to date precipitation 0.89  
Year to date precipitation 26.49  
Snow  
Snow 0.00 in - - ()
Month to date snowfall  
Since 1 June snowfall  
Since 1 July snowfall  
Snow Depth -    
Sea Level Pressure  
Sea Level Pressure 30.11 in    
Wind  
Wind Speed 0 mph (SSW)    
Max Wind Speed 5 mph    
Max Gust Speed -    
Visibility 9 miles    
Events Thunderstorm    
T = Trace of Precipitation, MM = Missing Value Source: NWS Daily Summary

Daily Weather History Graph

Daily Weather History Graph

Search for Another Location

Airport or City:

Trip Planner

Search our weather history database for the weather conditions in past years. The results will help you decide how hot, cold, wet, or windy it might be!

Date:

Astronomy

Aug. 07, 2012 Rise Set
Actual Time 6:32 AM EDT 8:23 PM EDT
Civil Twilight 6:04 AM EDT 8:51 PM EDT
Nautical Twilight 5:30 AM EDT 9:25 PM EDT
Astronomical Twilight 4:53 AM EDT 10:02 PM EDT
Moon 11:13 PM EDT (8/7) 12:09 PM EDT (8/7)
Length of Visible Light 14h 46m
Length of Day
13h 50m
Waning Gibbous, 70% of the Moon is Illuminated
Aug 7
Waning Gibbous
Aug 9
Last Quarter
Aug 17
New
Aug 24
First Quarter
Aug 31
Full

Hourly Weather History & Observations

Time (EDT) Temp. Heat Index Dew Point Humidity Pressure Visibility Wind Dir Wind Speed Gust Speed Precip Events Conditions
12:15 AM 68.0 °F - 68.0 °F 100% 30.14 in - Calm Calm - N/A   Unknown
12:35 AM 68.0 °F - 68.0 °F 100% 30.14 in - Calm Calm - N/A   Unknown
12:55 AM 66.2 °F - 66.2 °F 100% 30.14 in - Calm Calm - N/A   Overcast
1:15 AM 66.2 °F - 66.2 °F 100% 30.13 in - Calm Calm - N/A   Unknown
1:35 AM 66.2 °F - 66.2 °F 100% 30.13 in - Calm Calm - N/A   Unknown
1:55 AM 66.2 °F - 66.2 °F 100% 30.13 in - Calm Calm - N/A   Unknown
2:15 AM 66.2 °F - 66.2 °F 100% 30.12 in - Calm Calm - N/A   Unknown
2:35 AM 66.2 °F - 66.2 °F 100% 30.11 in - Calm Calm - N/A   Overcast
2:55 AM 66.2 °F - 66.2 °F 100% 30.11 in - Calm Calm - N/A   Overcast
3:15 AM 66.2 °F - 66.2 °F 100% 30.11 in - Calm Calm - N/A   Overcast
3:35 AM 66.2 °F - 66.2 °F 100% 30.10 in - Calm Calm - N/A   Overcast
3:55 AM 66.2 °F - 66.2 °F 100% 30.10 in - Calm Calm - N/A   Overcast
4:15 AM 66.2 °F - 66.2 °F 100% 30.10 in - Calm Calm - N/A   Unknown
4:35 AM 66.2 °F - 66.2 °F 100% 30.10 in - Calm Calm - N/A   Unknown
4:55 AM 66.2 °F - 66.2 °F 100% 30.10 in - Calm Calm - N/A   Unknown
5:15 AM 66.2 °F - 66.2 °F 100% 30.09 in - Calm Calm - N/A   Overcast
5:35 AM 66.2 °F - - N/A% 30.10 in - Calm Calm - N/A   Unknown
5:55 AM 66.2 °F - 66.2 °F 100% 30.10 in 3.0 mi Calm Calm - N/A   Scattered Clouds
6:15 AM 66.2 °F - 66.2 °F 100% 30.10 in 3.0 mi Calm Calm - N/A   Mist
6:35 AM 66.2 °F - 66.2 °F 100% 30.11 in 1.5 mi Calm Calm - N/A   Overcast
6:55 AM 66.2 °F - 66.2 °F 100% 30.12 in - Calm Calm - N/A   Unknown
7:15 AM 66.2 °F - 66.2 °F 100% 30.12 in - Calm Calm - N/A   Overcast
7:35 AM 66.2 °F - 66.2 °F 100% 30.12 in - Calm Calm - N/A   Unknown
7:55 AM 66.2 °F - 66.2 °F 100% 30.13 in - Calm Calm - N/A   Overcast
8:15 AM 68.0 °F - 68.0 °F 100% 30.13 in 2.0 mi Calm Calm - N/A   Overcast
8:35 AM 68.0 °F - 68.0 °F 100% 30.14 in 4.0 mi Calm Calm - N/A   Overcast
8:55 AM 69.8 °F - 69.8 °F 100% 30.14 in 4.0 mi Calm Calm - N/A   Overcast
9:15 AM 69.8 °F - 69.8 °F 100% 30.13 in 5.0 mi Calm Calm - N/A   Overcast
9:35 AM 69.8 °F - 69.8 °F 100% 30.14 in 7.0 mi Calm Calm - N/A   Overcast
9:55 AM 69.8 °F - 69.8 °F 100% 30.13 in 7.0 mi Calm Calm - N/A   Overcast
10:15 AM 71.6 °F - 71.6 °F 100% 30.14 in 10.0 mi Calm Calm - N/A   Mostly Cloudy
10:35 AM 71.6 °F - 71.6 °F 100% 30.14 in 10.0 mi Calm Calm - N/A   Mostly Cloudy
10:55 AM 73.4 °F - 73.4 °F 100% 30.14 in 10.0 mi Calm Calm - N/A   Scattered Clouds
11:15 AM 75.2 °F - 73.4 °F 94% 30.14 in 10.0 mi Calm Calm - N/A   Scattered Clouds
11:35 AM 75.2 °F - 71.6 °F 89% 30.13 in 10.0 mi Calm Calm - N/A   Clear
11:55 AM 78.8 °F - 71.6 °F 78% 30.13 in 10.0 mi Calm Calm - N/A   Clear
12:15 PM 78.8 °F - 69.8 °F 74% 30.12 in 10.0 mi Calm Calm - N/A   Scattered Clouds
12:35 PM 78.8 °F - 69.8 °F 74% 30.12 in 10.0 mi Calm Calm - N/A   Clear
12:55 PM 78.8 °F - 69.8 °F 74% 30.12 in 10.0 mi Calm Calm - N/A   Clear
1:15 PM 78.8 °F - 68.0 °F 69% 30.12 in 10.0 mi Calm Calm - N/A   Clear
1:35 PM 80.6 °F 83.2 °F 68.0 °F 65% 30.11 in 10.0 mi Calm Calm - N/A   Clear
1:55 PM 80.6 °F 82.7 °F 66.2 °F 61% 30.11 in 10.0 mi NE 3.5 mph - N/A   Clear
2:15 PM 80.6 °F 82.7 °F 66.2 °F 61% 30.10 in 10.0 mi Calm Calm - N/A   Clear
2:35 PM 80.6 °F 83.2 °F 68.0 °F 65% 30.09 in 10.0 mi Calm Calm - N/A   Clear
2:55 PM 80.6 °F 83.2 °F 68.0 °F 65% 30.09 in 10.0 mi Calm Calm - N/A   Clear
3:15 PM 82.4 °F 84.6 °F 66.2 °F 58% 30.08 in 10.0 mi Calm Calm - N/A   Clear
3:35 PM 82.4 °F 84.6 °F 66.2 °F 58% 30.08 in 10.0 mi Calm Calm - N/A   Clear
3:55 PM 82.4 °F 85.4 °F 68.0 °F 62% 30.08 in 10.0 mi Calm Calm - N/A   Clear
4:15 PM 82.4 °F 84.6 °F 66.2 °F 58% 30.07 in 10.0 mi Calm Calm - N/A   Clear
4:35 PM 82.4 °F 84.6 °F 66.2 °F 58% 30.07 in 10.0 mi Calm Calm - N/A   Clear
4:55 PM 82.4 °F 84.6 °F 66.2 °F 58% 30.07 in 10.0 mi Calm Calm - N/A   Clear
5:15 PM 82.4 °F 84.6 °F 66.2 °F 58% 30.07 in 10.0 mi Calm Calm - N/A   Clear
5:35 PM 82.4 °F 85.4 °F 68.0 °F 62% 30.06 in 10.0 mi NE 3.5 mph - N/A   Clear
5:55 PM 82.4 °F 85.4 °F 68.0 °F 62% 30.06 in 10.0 mi Calm Calm - N/A   Clear
6:15 PM 82.4 °F 84.6 °F 66.2 °F 58% 30.06 in 10.0 mi Calm Calm - N/A   Clear
6:35 PM 80.6 °F 82.7 °F 66.2 °F 61% 30.06 in 10.0 mi Calm Calm - N/A   Clear
6:55 PM 80.6 °F 82.7 °F 66.2 °F 61% 30.07 in 10.0 mi Calm Calm - N/A   Clear
7:15 PM 80.6 °F 82.7 °F 66.2 °F 61% 30.07 in 10.0 mi Calm Calm - N/A   Clear
7:35 PM 78.8 °F - 69.8 °F 74% 30.08 in 10.0 mi Calm Calm - N/A   Clear
7:55 PM 78.8 °F - 69.8 °F 74% 30.08 in 10.0 mi Calm Calm - N/A   Clear
8:15 PM 78.8 °F - 69.8 °F 74% 30.08 in 10.0 mi Calm Calm - N/A   Clear
8:55 PM 75.2 °F - 71.6 °F 89% 30.09 in 10.0 mi South 3.5 mph - N/A   Mostly Cloudy
9:15 PM 75.2 °F - 71.6 °F 89% 30.09 in 10.0 mi South 3.5 mph - N/A   Scattered Clouds
9:35 PM 75.2 °F - 71.6 °F 89% 30.10 in 10.0 mi SW 3.5 mph - N/A   Scattered Clouds
9:55 PM 73.4 °F - 71.6 °F 94% 30.11 in 10.0 mi West 4.6 mph - N/A   Clear
10:15 PM 73.4 °F - 71.6 °F 94% 30.10 in 10.0 mi Calm Calm - N/A Thunderstorm Clear
10:35 PM 73.4 °F - 71.6 °F 94% 30.11 in 10.0 mi Calm Calm - N/A   Clear
10:55 PM 73.4 °F - 71.6 °F 94% 30.11 in 10.0 mi Calm Calm - N/A   Clear
11:15 PM 73.4 °F - 71.6 °F 94% 30.09 in 10.0 mi Calm Calm - N/A   Scattered Clouds
11:35 PM 71.6 °F - 71.6 °F 100% 30.09 in 10.0 mi Calm Calm - N/A   Clear
11:55 PM 71.6 °F - 71.6 °F 100% 30.10 in 10.0 mi Calm Calm - N/A   Clear